Etusivu
METAR-TAF:

METAR-TAF

Lentoasemat :

Hemavan, Ruotsi

Leveyspiiri: 65-48-22N, Pituuspiiri: 015-04-58E, korkeus merenpinnasta: 458 m

Tämänhetkinen sää

Tämä raportti tehtiin 19 minuuttia sitten, kello 05.50 UTC
Tuuli 4 kn etelästä/kaakosta
Lämpötila -2°C
Kosteus 93%
Ilmanpaine 965 hPa
Näkyvyys: 2900 m
heikkoa lumisadetta

METAR: ESUT 170550Z AUTO 16004KT 2900 -SN VV020 M02/M03 Q0965

Aika: 07:09 (06:09 UTC)


TAF: puuttuu

Säähavainnot ja -ennusteet yli 4000 lentoasemalta (METAR- ja TAF-raportit).

Käytössä olevat sääasemat on merkitty karttaan keltaisilla ja punaisilla pisteillä.

Aseta hiiri pisteen päälle nähdäksesi sääaseman nimen.

Klikkaa sitten nähdäksesi säähavainnot ja -ennusteet.

Kartan vaihtaminen: klikkaa mustalla rastilla varustettuja vihreitä pisteitä, niin voit zoomata sisään; viivalla varustettua vihreää pistettä, niin voit zoomata ulos tai vihreitä nuolia, niin pääset viereisille kartoille.


METAR-TAF: